date,City,No. Stations,Air Quality,Index Value,Prominent Pollutant
2019-01-28,Hisar,1.0,Moderate,177,PM2.5
2019-01-29,Hisar,1.0,Moderate,162,PM2.5
2019-01-30,Hisar,1.0,Poor,216,PM2.5
2019-01-31,Hisar,1.0,Poor,217,PM2.5
2019-02-01,Hisar,1.0,Poor,221,PM2.5
2019-02-02,Hisar,1.0,Moderate,199,PM2.5
2019-02-03,Hisar,1.0,Moderate,148,PM2.5
2019-02-04,Hisar,1.0,Poor,258,PM2.5
2019-02-05,Hisar,1.0,Poor,229,PM2.5
2019-02-06,Hisar,1.0,Poor,280,PM2.5
2019-02-07,Hisar,1.0,Moderate,187,PM2.5
2019-02-08,Hisar,1.0,Moderate,143,PM10
2019-02-09,Hisar,1.0,Moderate,114,PM10
2019-02-10,Hisar,1.0,Moderate,132,PM10
2019-02-11,Hisar,1.0,Poor,224,PM2.5
2019-02-12,Hisar,1.0,Poor,214,PM2.5
2019-02-13,Hisar,1.0,Poor,232,PM2.5
2019-02-14,Hisar,1.0,Poor,300,PM2.5
2019-02-15,Hisar,1.0,Moderate,195,PM2.5
2019-02-16,Hisar,1.0,Moderate,118,PM2.5
2019-02-17,Hisar,1.0,Moderate,144,PM2.5
2019-02-18,Hisar,1.0,Moderate,161,PM2.5
2019-02-19,Hisar,1.0,Moderate,116,PM10
2019-02-20,Hisar,1.0,Poor,237,PM2.5
2019-02-21,Hisar,1.0,Moderate,126,PM2.5
2019-02-22,Hisar,1.0,Satisfactory,77,PM2.5
2019-02-23,Hisar,1.0,Satisfactory,67,PM10
2019-02-24,Hisar,1.0,Satisfactory,91,PM2.5
2019-02-25,Hisar,1.0,Moderate,149,PM2.5
2019-02-26,Hisar,1.0,Satisfactory,67,PM10
2019-02-27,Hisar,1.0,Satisfactory,73,PM10
2019-02-28,Hisar,1.0,Moderate,134,PM2.5
2019-03-01,Hisar,1.0,Moderate,134,PM2.5
2019-03-02,Hisar,1.0,Moderate,101,PM2.5
2019-03-03,Hisar,1.0,Satisfactory,94,PM2.5
2019-03-04,Hisar,1.0,Moderate,102,PM2.5
2019-03-05,Hisar,1.0,Satisfactory,78,PM2.5
2019-03-06,Hisar,1.0,Satisfactory,84,OZONE
2019-03-07,Hisar,1.0,Moderate,151,OZONE
2019-03-08,Hisar,1.0,Satisfactory,77,PM10
2019-03-09,Hisar,1.0,Satisfactory,85,PM10
2019-03-10,Hisar,1.0,Satisfactory,91,PM10
2019-03-11,Hisar,1.0,Moderate,107,PM10
2019-03-12,Hisar,1.0,Moderate,104,PM10
2019-03-13,Hisar,1.0,Moderate,143,PM10
2019-03-14,Hisar,1.0,Moderate,124,PM10
2019-03-15,Hisar,1.0,Satisfactory,82,PM10
2019-03-16,Hisar,1.0,Satisfactory,92,PM2.5
2019-03-17,Hisar,1.0,Moderate,118,PM2.5
2019-03-18,Hisar,1.0,Moderate,137,PM2.5
2019-03-19,Hisar,1.0,Moderate,144,PM2.5
2019-03-20,Hisar,1.0,Moderate,127,PM10
2019-03-21,Hisar,1.0,Satisfactory,99,PM10
2019-03-22,Hisar,1.0,Satisfactory,98,PM10
2019-03-23,Hisar,1.0,Satisfactory,99,PM10
2019-03-24,Hisar,1.0,Satisfactory,97,PM10
2019-03-25,Hisar,1.0,Satisfactory,100,PM10
2019-03-26,Hisar,1.0,Moderate,115,PM2.5
2019-03-27,Hisar,1.0,Moderate,107,PM10
2019-03-28,Hisar,1.0,Moderate,124,PM10
2019-03-29,Hisar,1.0,Moderate,163,PM2.5
2019-03-30,Hisar,1.0,Poor,203,PM2.5
2019-03-31,Hisar,1.0,Moderate,122,PM10
2019-04-01,Hisar,1.0,Moderate,123,PM10
2019-04-02,Hisar,1.0,Moderate,150,OZONE
2019-04-03,Hisar,1.0,Moderate,175,OZONE
2019-04-04,Hisar,1.0,Moderate,154,PM2.5
2019-04-05,Hisar,1.0,Moderate,191,PM2.5
2019-04-06,Hisar,1.0,Moderate,197,PM10
2019-04-07,Hisar,1.0,Moderate,184,PM2.5
2019-04-09,Hisar,1.0,Moderate,194,PM10
2019-04-10,Hisar,1.0,Moderate,168,PM10
2019-04-11,Hisar,1.0,Moderate,121,PM10
2019-04-12,Hisar,1.0,Moderate,162,PM10
2019-04-13,Hisar,1.0,Moderate,120,PM10
2019-04-14,Hisar,1.0,Moderate,110,PM10
2019-04-15,Hisar,1.0,Moderate,121,PM10
2019-04-16,Hisar,1.0,Moderate,124,PM10
2019-04-17,Hisar,1.0,Moderate,135,PM10
2019-04-18,Hisar,1.0,Satisfactory,96,OZONE
2019-04-19,Hisar,1.0,Moderate,151,OZONE
2019-04-20,Hisar,1.0,Moderate,167,OZONE
2019-04-21,Hisar,1.0,Moderate,158,OZONE
2019-04-22,Hisar,1.0,Moderate,166,OZONE
2019-04-23,Hisar,1.0,Moderate,144,PM10
2019-04-24,Hisar,1.0,Poor,214,PM10
2019-04-25,Hisar,1.0,Poor,201,PM10
2019-04-26,Hisar,1.0,Poor,203,PM10
2019-04-27,Hisar,1.0,Moderate,184,PM10
2019-04-28,Hisar,1.0,Moderate,195,PM10
2019-04-29,Hisar,1.0,Very Poor,339,PM2.5
2019-04-30,Hisar,1.0,Poor,271,PM2.5
2019-05-01,Hisar,1.0,Poor,256,PM2.5
2019-05-02,Hisar,1.0,Poor,258,PM2.5
2019-05-03,Hisar,1.0,Moderate,172,PM2.5
2019-05-04,Hisar,1.0,Poor,230,PM2.5
2019-05-05,Hisar,1.0,Poor,243,PM2.5
2019-05-06,Hisar,1.0,Poor,251,PM2.5
2019-05-07,Hisar,1.0,Poor,229,PM2.5
2019-05-08,Hisar,1.0,Poor,275,PM10
2019-05-09,Hisar,1.0,Poor,298,PM2.5
2019-05-10,Hisar,1.0,Very Poor,319,PM2.5
2019-05-11,Hisar,1.0,Poor,205,PM2.5
2019-05-12,Hisar,1.0,Very Poor,316,PM2.5
2019-05-13,Hisar,1.0,Very Poor,317,PM2.5
2019-05-14,Hisar,1.0,Moderate,125,PM2.5
2019-05-15,Hisar,1.0,Poor,237,PM2.5
2019-05-16,Hisar,1.0,Poor,203,PM2.5
2019-05-17,Hisar,1.0,Moderate,190,PM2.5
2019-05-19,Hisar,1.0,Moderate,154,PM2.5
2019-05-20,Hisar,1.0,Poor,248,PM2.5
2019-05-21,Hisar,1.0,Poor,220,PM2.5
2019-05-22,Hisar,1.0,Poor,216,PM2.5
2019-05-23,Hisar,1.0,Poor,219,PM2.5
2019-05-24,Hisar,1.0,Moderate,102,PM2.5
2019-05-25,Hisar,1.0,Satisfactory,90,OZONE
2019-05-26,Hisar,1.0,Moderate,109,OZONE
2019-05-27,Hisar,1.0,Moderate,117,PM2.5
2019-05-28,Hisar,1.0,Moderate,121,OZONE
2019-05-29,Hisar,1.0,Moderate,173,PM2.5
2019-05-30,Hisar,1.0,Poor,250,PM2.5
2019-05-31,Hisar,1.0,Poor,288,PM10
2019-06-01,Hisar,1.0,Poor,228,PM2.5
2019-06-02,Hisar,1.0,Poor,201,PM2.5
2019-06-03,Hisar,1.0,Poor,261,PM2.5
2019-06-04,Hisar,1.0,Poor,209,PM10
2019-06-05,Hisar,1.0,Moderate,177,PM2.5
2019-06-06,Hisar,1.0,Poor,208,PM2.5
2019-06-07,Hisar,1.0,Moderate,145,PM10
2019-06-08,Hisar,1.0,Poor,231,PM2.5
2019-06-09,Hisar,1.0,Moderate,166,PM10
2019-06-10,Hisar,1.0,Moderate,191,PM2.5
2019-06-11,Hisar,1.0,Poor,254,PM2.5
2019-06-12,Hisar,1.0,Poor,211,PM10
2019-06-13,Hisar,1.0,Poor,223,PM10
2019-06-14,Hisar,1.0,Poor,243,OZONE
2019-06-15,Hisar,1.0,Moderate,184,PM2.5
2019-06-16,Hisar,1.0,Moderate,155,PM10
2019-06-17,Hisar,1.0,Satisfactory,89,PM10
2019-06-18,Hisar,1.0,Satisfactory,92,OZONE
2019-06-19,Hisar,1.0,Moderate,148,PM2.5
2019-06-20,Hisar,1.0,Moderate,147,PM10
2019-06-21,Hisar,1.0,Moderate,119,PM10
2019-06-22,Hisar,1.0,Moderate,135,PM2.5
2019-06-23,Hisar,1.0,Moderate,184,OZONE
2019-06-24,Hisar,1.0,Moderate,106,PM10
2019-06-25,Hisar,1.0,Moderate,151,OZONE
2019-06-26,Hisar,1.0,Moderate,107,OZONE
2019-06-27,Hisar,1.0,Poor,260,PM10
2019-06-28,Hisar,1.0,Moderate,156,PM10
2019-06-29,Hisar,1.0,Very Poor,342,PM10
2019-06-30,Hisar,1.0,Poor,225,PM10
2019-07-01,Hisar,1.0,Moderate,185,PM10
2019-07-02,Hisar,1.0,Poor,262,PM10
2019-07-03,Hisar,1.0,Moderate,155,PM10
2019-07-04,Hisar,1.0,Moderate,112,PM10
2019-07-05,Hisar,1.0,Satisfactory,77,PM10
2019-07-07,Hisar,1.0,Satisfactory,78,PM10
2019-07-08,Hisar,1.0,Moderate,107,PM10
2019-07-09,Hisar,1.0,Moderate,129,PM10
2019-07-10,Hisar,1.0,Moderate,141,PM10
2019-07-11,Hisar,1.0,Very Poor,345,PM2.5
2019-07-12,Hisar,1.0,Very Poor,321,PM2.5
2019-07-13,Hisar,1.0,Very Poor,325,PM2.5
2019-07-14,Hisar,1.0,Very Poor,333,PM2.5
2019-07-15,Hisar,1.0,Poor,219,PM10
2019-07-16,Hisar,1.0,Moderate,101,PM2.5
2019-07-17,Hisar,1.0,Satisfactory,66,OZONE
2019-07-18,Hisar,1.0,Satisfactory,61,PM2.5
2019-07-19,Hisar,1.0,Satisfactory,66,PM10
2019-07-20,Hisar,1.0,Moderate,102,PM10
2019-07-21,Hisar,1.0,Satisfactory,90,PM10
2019-07-22,Hisar,1.0,Satisfactory,83,PM10
2019-07-23,Hisar,1.0,Satisfactory,94,PM2.5
2019-07-24,Hisar,1.0,Satisfactory,87,PM10
2019-07-25,Hisar,1.0,Satisfactory,55,PM10
2019-07-26,Hisar,1.0,Good,50,PM10
2019-07-27,Hisar,1.0,Good,48,PM10
2019-07-28,Hisar,1.0,Satisfactory,54,PM10
2019-07-29,Hisar,1.0,Good,46,PM2.5
2019-07-30,Hisar,1.0,Satisfactory,68,PM10
2019-07-31,Hisar,1.0,Satisfactory,74,PM10
2019-08-01,Hisar,1.0,Satisfactory,78,PM10
2019-08-02,Hisar,1.0,Satisfactory,59,PM10
2019-08-03,Hisar,1.0,Satisfactory,58,PM10
2019-08-04,Hisar,1.0,Satisfactory,72,PM2.5
2019-08-05,Hisar,1.0,Satisfactory,83,PM10
2019-08-06,Hisar,1.0,Satisfactory,65,PM10
2019-08-07,Hisar,1.0,Satisfactory,64,PM10
2019-08-08,Hisar,1.0,Satisfactory,72,PM10
2019-08-09,Hisar,1.0,Satisfactory,81,PM10
2019-08-10,Hisar,1.0,Satisfactory,51,PM10
2019-08-11,Hisar,1.0,Satisfactory,67,PM10
2019-08-12,Hisar,1.0,Good,37,OZONE
2019-08-13,Hisar,1.0,Satisfactory,56,PM10
2019-08-14,Hisar,1.0,Satisfactory,62,PM10
2019-08-15,Hisar,1.0,Satisfactory,62,PM10
2019-08-16,Hisar,1.0,Good,49,PM10
2019-08-17,Hisar,1.0,Good,45,SO2
2019-08-18,Hisar,1.0,Good,27,OZONE
2019-08-19,Hisar,1.0,Satisfactory,56,PM10
2019-08-20,Hisar,1.0,Satisfactory,63,PM10
2019-08-21,Hisar,1.0,Satisfactory,98,PM10
2019-08-22,Hisar,1.0,Satisfactory,92,PM10
2019-08-23,Hisar,1.0,Satisfactory,100,PM10
2019-08-24,Hisar,1.0,Moderate,113,PM10
2019-08-25,Hisar,1.0,Moderate,101,PM10
2019-08-26,Hisar,1.0,Satisfactory,61,PM10
2019-08-27,Hisar,1.0,Satisfactory,66,PM10
2019-08-28,Hisar,1.0,Satisfactory,78,PM10
2019-08-29,Hisar,1.0,Satisfactory,86,PM2.5
2019-08-30,Hisar,1.0,Satisfactory,74,PM10
2019-08-31,Hisar,1.0,Satisfactory,83,OZONE
2019-09-01,Hisar,1.0,Satisfactory,89,OZONE
2019-09-02,Hisar,1.0,Satisfactory,77,OZONE
2019-09-03,Hisar,1.0,Satisfactory,90,PM10
2019-09-04,Hisar,1.0,Satisfactory,93,PM2.5
2019-09-05,Hisar,1.0,Moderate,142,PM2.5
2019-09-06,Hisar,1.0,Satisfactory,75,PM2.5
2019-09-07,Hisar,1.0,Satisfactory,84,PM10
2019-09-08,Hisar,1.0,Satisfactory,84,PM10
2019-09-09,Hisar,1.0,Satisfactory,89,PM2.5
2019-09-10,Hisar,1.0,Moderate,150,PM10
2019-09-11,Hisar,1.0,Moderate,189,PM2.5
2019-09-12,Hisar,1.0,Moderate,200,PM2.5
2019-09-13,Hisar,1.0,Moderate,146,PM2.5
2019-09-14,Hisar,1.0,Satisfactory,95,PM2.5
2019-09-15,Hisar,1.0,Satisfactory,86,PM10
2019-09-16,Hisar,1.0,Moderate,130,PM2.5
2019-09-17,Hisar,1.0,Moderate,134,PM2.5
2019-09-18,Hisar,1.0,Moderate,118,PM10
2019-09-19,Hisar,1.0,Satisfactory,96,PM10
2019-09-20,Hisar,1.0,Satisfactory,75,PM10
2019-09-21,Hisar,1.0,Satisfactory,90,PM10
2019-09-22,Hisar,1.0,Satisfactory,79,PM10
2019-09-23,Hisar,1.0,Satisfactory,84,PM10
2019-09-24,Hisar,1.0,Satisfactory,71,PM10
2019-09-25,Hisar,1.0,Satisfactory,79,PM10
2019-09-26,Hisar,1.0,Satisfactory,71,PM10
2019-09-27,Hisar,1.0,Satisfactory,77,PM10
2019-09-28,Hisar,1.0,Satisfactory,69,PM10
2019-09-29,Hisar,1.0,Satisfactory,59,PM10
2019-09-30,Hisar,1.0,Satisfactory,54,OZONE
2019-10-01,Hisar,1.0,Satisfactory,81,PM10
2019-10-02,Hisar,1.0,Satisfactory,90,PM10
2019-10-04,Hisar,1.0,Satisfactory,56,PM2.5
2019-10-05,Hisar,1.0,Satisfactory,68,OZONE
2019-10-06,Hisar,1.0,Moderate,107,PM10
2019-10-07,Hisar,1.0,Moderate,129,PM10
2019-10-08,Hisar,1.0,Satisfactory,91,PM10
2019-10-09,Hisar,1.0,Moderate,116,PM2.5
2019-10-10,Hisar,1.0,Moderate,126,PM2.5
2019-10-11,Hisar,1.0,Moderate,192,PM2.5
2019-10-12,Hisar,1.0,Poor,218,PM2.5
2019-10-13,Hisar,1.0,Poor,269,PM2.5
2019-10-14,Hisar,1.0,Poor,244,PM2.5
2019-10-15,Hisar,1.0,Poor,257,PM2.5
2019-10-16,Hisar,1.0,Poor,261,PM2.5
2019-10-17,Hisar,1.0,Poor,297,PM2.5
2019-10-18,Hisar,1.0,Poor,271,PM2.5
2019-10-19,Hisar,1.0,Moderate,165,PM2.5
2019-10-20,Hisar,1.0,Poor,203,PM2.5
2019-10-21,Hisar,1.0,Poor,216,PM2.5
2019-10-22,Hisar,1.0,Poor,215,PM2.5
2019-10-23,Hisar,1.0,Poor,224,PM2.5
2019-10-24,Hisar,1.0,Poor,294,PM2.5
2019-10-25,Hisar,1.0,Very Poor,333,PM2.5
2019-10-26,Hisar,1.0,Very Poor,328,PM2.5
2019-10-27,Hisar,1.0,Very Poor,385,PM2.5
2019-10-28,Hisar,1.0,Very Poor,370,PM2.5
2019-10-29,Hisar,1.0,Very Poor,336,PM2.5
2019-10-30,Hisar,1.0,Very Poor,343,PM2.5
2019-10-31,Hisar,1.0,Very Poor,323,PM2.5
2019-11-01,Hisar,1.0,Severe,456,PM2.5
2019-11-02,Hisar,1.0,Severe,490,PM2.5
2019-11-03,Hisar,1.0,Severe,445,PM2.5
2019-11-04,Hisar,1.0,Severe,424,PM2.5
2019-11-05,Hisar,1.0,Poor,238,PM2.5
2019-11-06,Hisar,1.0,Poor,232,PM2.5
2019-11-07,Hisar,1.0,Moderate,125,PM2.5
2019-11-08,Hisar,1.0,Moderate,196,PM2.5
2019-11-09,Hisar,1.0,Moderate,186,PM2.5
2019-11-10,Hisar,1.0,Poor,213,PM2.5
2019-11-11,Hisar,1.0,Very Poor,312,PM2.5
2019-11-12,Hisar,1.0,Severe,445,PM2.5
2019-11-13,Hisar,1.0,Severe,476,PM2.5
2019-11-14,Hisar,1.0,Severe,433,PM2.5
2019-11-15,Hisar,1.0,Very Poor,366,PM2.5
2019-11-16,Hisar,1.0,Poor,286,PM2.5
2019-11-17,Hisar,1.0,Moderate,196,PM2.5
2019-11-18,Hisar,1.0,Moderate,177,PM2.5
2019-11-19,Hisar,1.0,Moderate,142,PM2.5
2019-11-20,Hisar,1.0,Very Poor,314,PM2.5
2019-11-21,Hisar,1.0,Very Poor,353,PM2.5
2019-11-22,Hisar,1.0,Very Poor,332,PM2.5
2019-11-23,Hisar,1.0,Poor,287,PM2.5
2019-11-24,Hisar,1.0,Poor,268,PM2.5
2019-11-25,Hisar,1.0,Poor,233,PM2.5
2019-11-26,Hisar,1.0,Poor,279,PM2.5
2019-11-27,Hisar,1.0,Satisfactory,94,PM2.5
2019-11-28,Hisar,1.0,Satisfactory,84,PM2.5
2019-11-29,Hisar,1.0,Satisfactory,88,PM2.5
2019-11-30,Hisar,1.0,Moderate,181,PM2.5
2019-12-01,Hisar,1.0,Poor,208,PM2.5
2019-12-02,Hisar,1.0,Poor,260,PM2.5
2019-12-03,Hisar,1.0,Poor,261,PM2.5
2019-12-04,Hisar,1.0,Poor,245,PM2.5
2019-12-05,Hisar,1.0,Very Poor,319,PM2.5
2019-12-06,Hisar,1.0,Very Poor,330,PM2.5
2019-12-07,Hisar,1.0,Very Poor,313,PM2.5
2019-12-08,Hisar,1.0,Very Poor,310,PM2.5
2019-12-11,Hisar,1.0,Very Poor,355,PM2.5
2019-12-12,Hisar,1.0,Very Poor,357,PM2.5
2019-12-13,Hisar,1.0,Poor,265,PM2.5
2019-12-14,Hisar,1.0,Satisfactory,91,PM2.5
2019-12-15,Hisar,1.0,Moderate,132,PM2.5
2019-12-16,Hisar,1.0,Satisfactory,96,PM2.5
2019-12-17,Hisar,1.0,Satisfactory,94,PM2.5
2019-12-18,Hisar,1.0,Poor,208,PM2.5
2019-12-19,Hisar,1.0,Poor,256,PM2.5
2019-12-20,Hisar,1.0,Very Poor,302,PM2.5
2019-12-21,Hisar,1.0,Poor,262,PM2.5
2019-12-22,Hisar,1.0,Moderate,187,PM2.5
2019-12-23,Hisar,1.0,Poor,219,PM2.5
2019-12-24,Hisar,1.0,Poor,279,PM2.5
2019-12-25,Hisar,1.0,Poor,274,PM2.5
2019-12-26,Hisar,1.0,Poor,300,PM2.5
2019-12-27,Hisar,1.0,Very Poor,310,PM2.5
2019-12-28,Hisar,1.0,Poor,284,PM2.5
2019-12-29,Hisar,1.0,Very Poor,315,PM2.5
2019-12-30,Hisar,1.0,Poor,246,PM2.5
2020-01-01,Hisar,1.0,Very Poor,323,PM2.5
2020-01-02,Hisar,1.0,Poor,299,PM2.5
2020-01-03,Hisar,1.0,Poor,221,PM2.5
2020-01-04,Hisar,1.0,Poor,283,PM2.5
2020-01-05,Hisar,1.0,Poor,298,PM2.5
2020-01-06,Hisar,1.0,Poor,297,PM2.5
2020-01-07,Hisar,1.0,Moderate,120,PM2.5
2020-01-09,Hisar,1.0,Satisfactory,96,PM2.5
2020-01-10,Hisar,1.0,Moderate,194,PM2.5
2020-01-11,Hisar,1.0,Moderate,151,PM2.5
2020-01-12,Hisar,1.0,Poor,204,PM2.5
2020-01-13,Hisar,1.0,Poor,249,PM2.5
2020-01-14,Hisar,1.0,Moderate,110,PM2.5
2020-01-15,Hisar,1.0,Moderate,115,PM2.5
2020-01-16,Hisar,1.0,Satisfactory,92,PM2.5
2020-01-17,Hisar,1.0,Moderate,146,PM2.5
2020-01-18,Hisar,1.0,Poor,208,PM2.5
2020-01-19,Hisar,1.0,Moderate,162,PM2.5
2020-01-20,Hisar,1.0,Moderate,131,PM2.5
2020-01-21,Hisar,1.0,Poor,288,PM2.5
2020-01-22,Hisar,1.0,Poor,212,PM2.5
2020-01-23,Hisar,1.0,Moderate,115,PM2.5
2020-01-24,Hisar,1.0,Satisfactory,83,PM10
2020-01-25,Hisar,1.0,Moderate,149,PM2.5
2020-01-26,Hisar,1.0,Moderate,200,PM2.5
2020-01-27,Hisar,1.0,Poor,284,PM2.5
2020-01-29,Hisar,1.0,Satisfactory,99,PM2.5
2020-01-30,Hisar,1.0,Moderate,133,PM2.5
2020-01-31,Hisar,1.0,Satisfactory,100,PM2.5
2020-02-01,Hisar,1.0,Moderate,157,PM2.5
2020-02-02,Hisar,1.0,Moderate,153,PM2.5
2020-02-03,Hisar,1.0,Moderate,179,PM2.5
2020-02-04,Hisar,1.0,Moderate,197,PM2.5
2020-02-05,Hisar,1.0,Moderate,177,PM2.5
2020-02-06,Hisar,1.0,Moderate,166,PM2.5
2020-02-07,Hisar,1.0,Moderate,180,PM2.5
2020-02-08,Hisar,1.0,Moderate,191,PM2.5
2020-02-09,Hisar,1.0,Poor,218,PM2.5
2020-02-10,Hisar,1.0,Poor,224,PM2.5
2020-02-11,Hisar,1.0,Poor,262,PM2.5
2020-02-12,Hisar,1.0,Poor,252,PM2.5
2020-02-13,Hisar,1.0,Moderate,138,PM2.5
2020-02-14,Hisar,1.0,Moderate,112,PM2.5
2020-02-15,Hisar,1.0,Moderate,104,PM10
2020-02-16,Hisar,1.0,Moderate,152,PM2.5
2020-02-17,Hisar,1.0,Poor,217,PM2.5
2020-02-18,Hisar,1.0,Moderate,134,NO2
2020-02-19,Hisar,1.0,Poor,211,PM2.5
2020-02-20,Hisar,1.0,Poor,247,PM2.5
2020-02-21,Hisar,1.0,Moderate,151,CO
2020-02-22,Hisar,1.0,Moderate,112,CO
2020-02-23,Hisar,1.0,Moderate,133,PM2.5
2020-02-24,Hisar,1.0,Moderate,171,PM2.5
2020-02-25,Hisar,1.0,Moderate,187,PM2.5
2020-02-26,Hisar,1.0,Poor,227,PM2.5
2020-02-27,Hisar,1.0,Poor,248,PM2.5
2020-02-28,Hisar,1.0,Poor,209,PM2.5
2020-02-29,Hisar,1.0,Moderate,196,PM2.5
2020-03-01,Hisar,1.0,Satisfactory,77,PM2.5
2020-03-02,Hisar,1.0,Satisfactory,95,PM2.5
2020-03-03,Hisar,1.0,Moderate,103,PM2.5
2020-03-04,Hisar,1.0,Moderate,196,PM2.5
2020-03-05,Hisar,1.0,Satisfactory,90,PM2.5
2020-03-06,Hisar,1.0,Satisfactory,51,PM2.5
2020-03-07,Hisar,1.0,Satisfactory,51,PM2.5
2020-03-08,Hisar,1.0,Moderate,110,PM2.5
2020-03-09,Hisar,1.0,Satisfactory,76,PM10
2020-03-10,Hisar,1.0,Satisfactory,98,PM10
2020-03-11,Hisar,1.0,Satisfactory,73,PM10
2020-03-12,Hisar,1.0,Moderate,118,PM10
2020-03-13,Hisar,1.0,Satisfactory,95,PM10
2020-03-14,Hisar,1.0,Moderate,140,PM10
2020-03-15,Hisar,1.0,Satisfactory,91,PM2.5
2020-03-16,Hisar,1.0,Satisfactory,93,PM10
2020-03-17,Hisar,1.0,Moderate,105,PM10
2020-03-18,Hisar,1.0,Moderate,119,PM2.5
2020-03-19,Hisar,1.0,Moderate,149,PM2.5
2020-03-20,Hisar,1.0,Moderate,128,PM2.5
2020-03-21,Hisar,1.0,Moderate,113,PM10
2020-03-22,Hisar,1.0,Moderate,115,PM2.5
2020-03-23,Hisar,1.0,Satisfactory,76,PM10
2020-03-24,Hisar,1.0,Satisfactory,87,PM10
2020-03-25,Hisar,1.0,Satisfactory,74,PM2.5
2020-03-26,Hisar,1.0,Satisfactory,73,PM10
2020-03-27,Hisar,1.0,Good,44,PM10
2020-03-28,Hisar,1.0,Good,24,PM2.5
2020-03-29,Hisar,1.0,Good,45,PM10
2020-03-30,Hisar,1.0,Satisfactory,56,PM10
2020-03-31,Hisar,1.0,Satisfactory,60,PM10
2020-04-01,Hisar,1.0,Satisfactory,51,PM10
2020-04-02,Hisar,1.0,Satisfactory,57,PM10
2020-04-03,Hisar,1.0,Satisfactory,54,PM10
2020-04-04,Hisar,1.0,Satisfactory,65,PM10
2020-04-05,Hisar,1.0,Satisfactory,78,PM10
2020-04-06,Hisar,1.0,Satisfactory,84,PM10
2020-04-07,Hisar,1.0,Satisfactory,83,PM10
2020-04-08,Hisar,1.0,Satisfactory,76,PM10
2020-04-09,Hisar,1.0,Satisfactory,73,PM10
2020-04-10,Hisar,1.0,Satisfactory,93,PM10
2020-04-11,Hisar,1.0,Satisfactory,80,PM10
2020-04-12,Hisar,1.0,Satisfactory,84,PM10
2020-04-13,Hisar,1.0,Moderate,101,PM10
2020-04-14,Hisar,1.0,Moderate,111,PM10
2020-04-15,Hisar,1.0,Poor,222,PM10
2020-04-16,Hisar,1.0,Moderate,111,PM10
2020-04-17,Hisar,1.0,Satisfactory,98,PM10
2020-04-18,Hisar,1.0,Moderate,108,PM10
2020-04-19,Hisar,1.0,Satisfactory,85,PM10
2020-04-20,Hisar,1.0,Satisfactory,95,PM10
2020-04-21,Hisar,1.0,Satisfactory,70,PM10
2020-04-22,Hisar,1.0,Satisfactory,93,PM10
2020-04-23,Hisar,1.0,Moderate,116,PM10
2020-04-24,Hisar,1.0,Moderate,103,PM10
2020-04-25,Hisar,1.0,Satisfactory,77,PM10
2020-04-26,Hisar,1.0,Moderate,168,PM10
2020-04-27,Hisar,1.0,Satisfactory,86,PM10
2020-04-28,Hisar,1.0,Satisfactory,90,PM10
2020-04-29,Hisar,1.0,Moderate,135,PM10
2020-04-30,Hisar,1.0,Poor,215,PM10
2020-05-01,Hisar,1.0,Poor,213,PM10
2020-05-02,Hisar,1.0,Moderate,160,PM10
2020-05-03,Hisar,1.0,Moderate,120,PM10
2020-05-05,Hisar,1.0,Satisfactory,60,PM2.5
2020-05-06,Hisar,1.0,Moderate,165,PM10
2020-05-07,Hisar,1.0,Satisfactory,83,PM10
2020-05-08,Hisar,1.0,Moderate,155,PM2.5
2020-05-09,Hisar,1.0,Poor,207,PM2.5
2020-05-10,Hisar,1.0,Moderate,182,PM2.5
2020-05-11,Hisar,1.0,Moderate,109,PM10
2020-05-12,Hisar,1.0,Poor,210,PM10
2020-05-13,Hisar,1.0,Moderate,193,PM10
2020-05-14,Hisar,1.0,Satisfactory,99,PM10
2020-05-15,Hisar,1.0,Moderate,109,PM10
2020-05-16,Hisar,1.0,Moderate,118,PM10
2020-05-17,Hisar,1.0,Moderate,132,PM10
2020-05-18,Hisar,1.0,Moderate,143,PM10
2020-05-19,Hisar,1.0,Moderate,163,PM10
2020-05-20,Hisar,1.0,Moderate,138,PM10
2020-05-21,Hisar,1.0,Moderate,124,PM10
2020-05-22,Hisar,1.0,Moderate,152,PM10
2020-05-24,Hisar,1.0,Poor,204,PM10
2020-05-25,Hisar,1.0,Moderate,134,PM10
2020-05-26,Hisar,1.0,Moderate,171,PM10
2020-05-27,Hisar,1.0,Moderate,172,PM10
2020-05-28,Hisar,1.0,Moderate,193,PM10
2020-05-29,Hisar,1.0,Moderate,134,PM10
2020-05-30,Hisar,1.0,Satisfactory,78,PM10
2020-05-31,Hisar,1.0,Satisfactory,62,PM10
2020-06-01,Hisar,1.0,Satisfactory,53,O3
2020-06-02,Hisar,1.0,Satisfactory,70,PM10
2020-06-03,Hisar,1.0,Satisfactory,75,PM10
2020-06-04,Hisar,1.0,Satisfactory,94,PM10
2020-06-05,Hisar,1.0,Satisfactory,91,PM10
2020-06-06,Hisar,1.0,Satisfactory,86,PM10
2020-06-07,Hisar,1.0,Satisfactory,82,PM10
2020-06-08,Hisar,1.0,Satisfactory,94,PM10
2020-06-09,Hisar,1.0,Moderate,147,PM10
2020-06-10,Hisar,1.0,Moderate,134,PM10
2020-06-12,Hisar,1.0,Moderate,121,PM10
2020-06-13,Hisar,1.0,Poor,223,PM10
2020-06-14,Hisar,1.0,Satisfactory,97,PM10
2020-06-15,Hisar,1.0,Moderate,120,PM10
2020-06-16,Hisar,1.0,Moderate,150,PM2.5
2020-06-17,Hisar,1.0,Moderate,130,PM10
2020-06-18,Hisar,1.0,Moderate,124,PM10
2020-06-19,Hisar,1.0,Poor,278,PM10
2020-06-20,Hisar,1.0,Poor,211,PM10
2020-06-22,Hisar,1.0,Satisfactory,94,PM10
2020-06-23,Hisar,1.0,Satisfactory,92,PM2.5
2020-06-24,Hisar,1.0,Satisfactory,67,PM10
2020-06-25,Hisar,1.0,Satisfactory,89,PM10
2020-06-26,Hisar,1.0,Satisfactory,59,PM10
2020-06-27,Hisar,1.0,Moderate,130,PM10
2020-06-28,Hisar,1.0,Very Poor,319,PM10
2020-06-29,Hisar,1.0,Poor,261,PM10
2020-06-30,Hisar,1.0,Moderate,166,PM10
2020-07-01,Hisar,1.0,Moderate,126,PM10
2020-07-02,Hisar,1.0,Moderate,146,PM10
2020-07-03,Hisar,1.0,Moderate,175,PM2.5
2020-07-04,Hisar,1.0,Moderate,124,PM10
2020-07-06,Hisar,1.0,Satisfactory,94,O3
2020-07-07,Hisar,1.0,Satisfactory,80,PM10
2020-07-08,Hisar,1.0,Good,50,PM10
2020-07-09,Hisar,1.0,Good,38,O3
2020-07-10,Hisar,1.0,Satisfactory,74,PM10
2020-07-11,Hisar,1.0,Satisfactory,95,PM10
2020-07-12,Hisar,1.0,Satisfactory,63,PM10
2020-07-13,Hisar,1.0,Good,48,PM10
2020-07-14,Hisar,1.0,Moderate,168,PM10
2020-07-15,Hisar,1.0,Moderate,126,PM10
2020-07-16,Hisar,1.0,Moderate,172,O3
2020-07-17,Hisar,1.0,Moderate,108,O3
2020-07-18,Hisar,1.0,Moderate,163,O3
2020-07-19,Hisar,1.0,Satisfactory,99,O3
2020-07-20,Hisar,1.0,Good,43,PM10
2020-07-21,Hisar,1.0,Good,39,O3
2020-07-22,Hisar,1.0,Satisfactory,68,O3
2020-07-23,Hisar,1.0,Satisfactory,86,O3
2020-07-24,Hisar,1.0,Satisfactory,91,O3
2020-07-25,Hisar,1.0,Satisfactory,89,O3
2020-07-26,Hisar,1.0,Moderate,104,O3
2020-07-27,Hisar,1.0,Moderate,106,O3
2020-07-28,Hisar,1.0,Satisfactory,93,O3
2020-07-29,Hisar,1.0,Moderate,102,PM10
2020-07-30,Hisar,1.0,Satisfactory,76,O3
2020-07-31,Hisar,1.0,Satisfactory,94,O3
2020-08-01,Hisar,1.0,Moderate,109,O3
2020-08-02,Hisar,1.0,Moderate,105,O3
2020-08-03,Hisar,1.0,Moderate,152,O3
2020-08-04,Hisar,1.0,Satisfactory,87,O3
2020-08-05,Hisar,1.0,Moderate,123,PM10
2020-08-06,Hisar,1.0,Poor,204,O3
2020-08-07,Hisar,1.0,Moderate,115,O3
2020-08-08,Hisar,1.0,Satisfactory,74,PM2.5
2020-08-09,Hisar,1.0,Moderate,103,O3
2020-08-10,Hisar,1.0,Satisfactory,72,O3
2020-08-11,Hisar,1.0,Satisfactory,63,O3
2020-08-12,Hisar,1.0,Satisfactory,59,O3
2020-08-13,Hisar,1.0,Satisfactory,72,PM10
2020-08-14,Hisar,1.0,Satisfactory,54,O3
2020-08-15,Hisar,1.0,Satisfactory,67,O3
2020-08-16,Hisar,1.0,Satisfactory,65,PM10
2020-08-17,Hisar,1.0,Satisfactory,52,O3
2020-08-18,Hisar,1.0,Satisfactory,51,PM2.5
2020-08-19,Hisar,1.0,Good,32,PM10
2020-08-20,Hisar,1.0,Good,34,PM10
2020-08-21,Hisar,1.0,Good,49,PM10
2020-08-22,Hisar,1.0,Good,44,PM10
2020-08-23,Hisar,1.0,Good,44,PM10
2020-08-24,Hisar,1.0,Good,40,PM2.5
2020-08-25,Hisar,1.0,Satisfactory,68,PM10
2020-08-26,Hisar,1.0,Good,33,CO
2020-08-27,Hisar,1.0,Good,48,PM10
2020-08-28,Hisar,1.0,Satisfactory,67,CO
2020-08-29,Hisar,1.0,Satisfactory,59,PM10
2020-08-30,Hisar,1.0,Satisfactory,70,PM2.5
2020-08-31,Hisar,1.0,Good,48,PM10
2020-09-01,Hisar,1.0,Good,49,PM10
2020-09-02,Hisar,1.0,Good,38,PM10
2020-09-03,Hisar,1.0,Satisfactory,68,PM10
2020-09-04,Hisar,1.0,Satisfactory,67,PM2.5
2020-09-05,Hisar,1.0,Satisfactory,75,PM2.5
2020-09-06,Hisar,1.0,Good,35,CO
2020-09-07,Hisar,1.0,Good,46,PM10
2020-09-08,Hisar,1.0,Good,44,PM10
2020-09-09,Hisar,1.0,Moderate,103,PM2.5
2020-09-10,Hisar,1.0,Satisfactory,94,PM10
2020-09-11,Hisar,1.0,Moderate,115,PM10
2020-09-12,Hisar,1.0,Moderate,118,PM2.5
2020-09-13,Hisar,1.0,Moderate,140,PM10
2020-09-15,Hisar,1.0,Moderate,178,PM2.5
2020-09-16,Hisar,1.0,Moderate,156,PM2.5
2020-09-17,Hisar,1.0,Satisfactory,75,PM2.5
2020-09-18,Hisar,1.0,Satisfactory,80,PM2.5
2020-09-19,Hisar,1.0,Satisfactory,59,PM2.5
2020-09-20,Hisar,1.0,Satisfactory,58,PM2.5
2020-09-21,Hisar,1.0,Moderate,145,PM2.5
2020-09-22,Hisar,1.0,Moderate,132,PM2.5
2020-09-23,Hisar,1.0,Satisfactory,99,PM2.5
2020-09-24,Hisar,1.0,Satisfactory,83,PM2.5
2020-09-25,Hisar,1.0,Satisfactory,98,PM2.5
2020-09-26,Hisar,1.0,Moderate,126,PM2.5
2020-09-27,Hisar,1.0,Satisfactory,89,PM10
2020-09-28,Hisar,1.0,Moderate,138,PM10
2020-09-30,Hisar,1.0,Moderate,118,PM10
2020-10-01,Hisar,1.0,Moderate,135,PM10
2020-10-02,Hisar,1.0,Moderate,144,PM10
2020-10-03,Hisar,1.0,Moderate,159,PM2.5
2020-10-04,Hisar,1.0,Moderate,139,PM2.5
2020-10-05,Hisar,1.0,Moderate,136,PM10
2020-10-06,Hisar,1.0,Moderate,136,PM2.5
2020-10-07,Hisar,1.0,Moderate,132,PM10
2020-10-08,Hisar,1.0,Moderate,130,PM10
2020-10-09,Hisar,1.0,Moderate,146,PM10
2020-10-10,Hisar,1.0,Moderate,167,PM2.5
2020-10-11,Hisar,1.0,Moderate,155,PM2.5